x

East Gulf - 208 Mn West Of Naples, Fl (42003) Wave Buoy

1:50am - Tue 3rd Mar 2015 All times are EST. -5 hours from GMT.

  • Sig Wave height 2.0ft
  • Swell Direction
  • Peak Period 7s
  • Average Period 4s
  • Wind
    11mph
  • Sea Temp 78°f
  • Air Temp 74°f
  • Sea Pressure 1021.1mb
  • East Gulf - 208 Mn West Of Naples, Fl
  • East Gulf - 208 Mn West Of Naples, Fl

More Historic Weather Station data

Upgrade to MSW Pro to gain access to the past 30 days of data for over 8000 Wavebouys and Weather Stations around the globe.

Join Pro

Comparision Forecast

View Surf forecast
   
Tue 03/03 1:50am 2ft 7s 4s 11
mph
1021.1mb 78f 74f
12:50am 2ft 4s 4s 11 13 mph 1021.6mb 78f 74f
Mon 03/02 11:50pm 2.5ft 7s 4s 9 11 mph 1022.1mb 78f 74f
10:50pm 2.5ft 6s 4s 11 13 mph 1022.5mb 78f 74f
9:50pm 2.5ft 5s 4s 11 16 mph 1022.7mb 78f 74f
8:50pm 2.5ft 7s 5s 13 16 mph 1022.7mb 78f 74f
7:50pm 2.5ft 5s 4s 11 16 mph 1022.2mb 78f 75f
6:50pm 2.5ft 5s 5s 11 13 mph 1021.9mb 78f 75f
5:50pm 2.5ft 5s 4s 11 13 mph 1021.8mb 78f 75f
4:50pm 2.5ft 4s 4s 11 13 mph 1021.7mb 78f 74f
3:50pm 2.5ft 4s 5s 11 13 mph 1021.9mb 78f 74f
2:50pm 2.5ft 4s 4s 11 13 mph 1022.3mb 78f 74f
1:50pm 3ft 5s 4s 11 13 mph 1023mb 77f 74f
12:50pm 3ft 5s 5s 11 13 mph 1024.1mb 77f 74f
11:50am 3.5ft 5s 5s 11 16 mph 1024.9mb 77f 73f
10:50am 3.5ft 5s 5s 16 18 mph 1025.1mb 77f 73f
9:50am 3.5ft 5s 5s 16 18 mph 1025mb 77f 73f
8:50am 3.5ft 5s 4s 16 20 mph 1024.5mb 77f 74f
7:50am 3.5ft 6s 4s 18 20 mph 1024.2mb 77f 74f
6:50am 3ft 5s 5s 13 16 mph 1023.9mb 77f 75f
5:50am 2.5ft 6s 5s 13 16 mph 1023.7mb 77f 75f
4:50am 3.5ft 5s 5s 11 13 mph 1023.4mb 76f 75f
3:50am 3ft 5s 5s 13 16 mph 1023.3mb 76f 75f
2:50am 3.5ft 6s 5s 11 13 mph 1023.6mb 76f 75f
1:50am 3ft 6s 5s 11 13 mph 1024mb 76f 75f
12:50am 3ft 6s 5s 13
mph
1024.5mb 76f 75f
Sun 03/01 11:50pm 3.5ft 6s 5s 11 13 mph 1024.7mb 76f 75f
10:50pm 4ft 7s 5s 11 13 mph 1024.7mb 76f 75f
9:50pm 3.5ft 6s 5s 11 13 mph 1024.8mb 76f 75f
8:50pm 4ft 7s 5s 11 13 mph 1024.3mb 76f 75f
7:50pm 4.5ft 6s 5s 11 13 mph 1023.9mb 76f 74f
6:50pm 4.5ft 7s 5s 11 13 mph 1023.7mb 77f 75f
5:50pm 4.5ft 6s 5s 13 16 mph 1023.5mb 77f 75f
4:50pm 4.5ft 6s 5s 13 16 mph 1023.2mb 77f 75f
3:50pm 4.5ft 6s 5s 16 18 mph 1023.3mb 77f 75f
2:50pm 4.5ft 7s 5s 13 16 mph 1023.9mb 77f 75f
1:50pm 5ft 8s 6s 11 13 mph 1024.5mb 77f 75f
12:50pm 5ft 7s 6s 13 16 mph 1025.2mb 77f 75f
11:50am 5.5ft 6s 6s 13 16 mph 1025.8mb 77f 75f
10:50am 5.5ft 6s 6s 16 18 mph 1026mb 77f 75f
9:50am 5.5ft 7s 6s 16 20 mph 1026mb 77f 75f
8:50am 5ft 7s 6s 16 20 mph 1025.4mb 77f 74f
7:50am 4.5ft 8s 5s 18 22 mph 1024.8mb 77f 74f
6:50am 4.5ft 6s 5s 18 20 mph 1024.1mb 77f 74f
5:50am 4.5ft 6s 5s 18 20 mph 1023.6mb 77f 74f
4:50am 4.5ft 7s 5s 18 20 mph 1023.1mb 77f 74f
3:50am 4.5ft 6s 5s 16 20 mph 1023.1mb 77f 74f
2:50am 4.5ft 7s 5s 16 20 mph 1023.3mb 77f 74f
1:50am 4.5ft 7s 5s 18 20 mph 1023.8mb 77f 75f
12:50am 4.5ft 7s 5s 16 20 mph 1024.1mb 77f 74f
Sat 02/28 11:50pm 4.5ft 7s 5s 18 20 mph 1024.3mb 78f 74f
10:50pm 4ft 6s 5s 16 20 mph 1024.7mb 78f 74f
9:50pm 4ft 7s 5s 16 20 mph 1024.5mb 78f 73f
8:50pm 4.5ft 6s 5s 18 20 mph 1023.8mb 78f 73f
7:50pm 4.5ft 7s 5s 13 16 mph 1023.4mb 78f 74f
6:50pm 4.5ft 7s 6s 11 13 mph 1023mb 78f 73f
5:50pm 4.5ft 7s 5s 11 13 mph 1022.4mb 78f 73f
4:50pm 4.5ft 7s 5s 13 16 mph 1022.1mb 78f 73f
3:50pm 5ft 7s 6s 13 16 mph 1022.3mb 78f 73f
2:50pm 5ft 7s 6s 16 18 mph 1022.5mb 77f 72f
1:50pm 5.5ft 7s 6s 13 16 mph 1023.3mb 77f 72f
12:50pm 5.5ft 7s 6s 13 16 mph 1023.9mb 77f 72f
11:50am 6ft 7s 6s 13 18 mph 1025mb 78f 71f
10:50am 5.5ft 7s 5s 16 20 mph 1025.1mb 78f 70f
9:50am 5.5ft 7s 6s 16 18 mph 1024.8mb 78f 69f
8:50am 6ft 7s 6s 16 20 mph 1024.4mb 78f 68f
7:50am 6ft 7s 6s 18 22 mph 1023.7mb 78f 68f
6:50am 5ft 7s 6s 18 25 mph 1022.6mb 78f 68f
5:50am 5ft 7s 6s 20 22 mph 1021.6mb 78f 69f
4:50am 6.5ft 7s 6s 16 20 mph 1021.2mb 78f 69f
3:50am 5ft 7s 6s 16 22 mph 1021.2mb 77f 69f
2:50am 6ft 6s 6s 16 20 mph 1021.3mb 77f 69f
1:50am 6ft 7s 6s 16 20 mph 1021.8mb 77f 69f
12:50am 6ft 7s 6s 16 20 mph 1021.8mb 77f 68f
Fri 02/27 11:50pm 6.5ft 7s 6s 16 20 mph 1022.3mb 77f 67f
10:50pm 6ft 7s 6s 18 22 mph 1022mb 76f 67f
9:50pm 6ft 7s 5s 18 22 mph 1021.8mb 76f 66f
8:50pm 6ft 7s 6s 20 25 mph 1021mb 76f 66f
7:50pm 6ft 7s 6s 20 22 mph 1020.5mb 76f 66f
6:50pm 5ft 7s 5s 20 27 mph 1020mb 76f 66f
5:50pm 6ft 7s 5s 22 25 mph 1019.8mb 76f 66f
4:50pm 5.5ft 7s 5s 20 25 mph 1019.8mb 76f 66f
3:50pm 5.5ft 7s 5s 20 25 mph 1020mb 76f 66f
2:50pm 5ft 7s 5s 20 25 mph 1020.1mb 76f 66f
1:50pm 5ft 6s 5s 20 25 mph 1020.4mb 76f 66f
12:50pm 5ft 6s 5s 20 29 mph 1021.2mb 76f 66f
11:50am 4.5ft 6s 5s 20 25 mph 1021.9mb 76f 66f
10:50am 4.5ft 6s 5s 22 27 mph 1022mb 76f 66f
9:50am 5ft 6s 5s 20 25 mph 1021.8mb 76f 66f
8:50am 4.5ft 6s 5s 20 25 mph 1021mb 76f 66f